星链-37057(STARLINK-37057)

导读

STARLINK-37057(NORAD编号68161)是美国SpaceX公司星链(Starlink)星座中的一颗低轨通信卫星,隶属于全球卫星互联网项目。该卫星运行于近地轨道(LEO),旨在为全球尤其是地面基础设施难以覆盖的偏远地区提供高速低延迟的互联网接入服务。作为星链大规模组网中的一员,它和同星座其他卫星共同推动全球网络覆盖,支撑家庭、商业及特殊场景通信需求,不过星链项目的快速扩张也引发了太空拥堵、天文观测干扰等领域的担忧。

基本信息
目录编号:
68161
目录名称:
STARLINK-37057
国际标识:
2026-049V
轨道中心:
EARTH
卫星名称:
星链-37057
卫星全名:
星链-37057(STARLINK-37057)
卫星状态:
在轨 (已飞行176 天)
发射日期:
2026-03-13 UTC
国别 :
美国 (US)
星等 :
--
轨道信息
数据来源 国际轨道数据 AOE轨道数据
星历时间 2026-09-04T14:50:13+0800
1天前
查看轨道信息
2026-09-03T09:00:00+0800
2天前
查看轨道信息
半长轴 6843.669km 6843.549km
偏心率 0.0000796 0.0000855
轨道倾角 97.284° 97.286°
近地点辐角 89.190° 88.430°
升交点赤经 267.438° 266.214°
平近点角 270.944° 253.184°
近地点 464.987km 464.826km
远地点 466.077km 465.998km
周期 93.906分钟 93.903分钟
每日圈数 15.334489 15.334892
详细信息
固有亮度:
5
最大亮度:
2.5
卫星平台:
Starlink V1.0
覆盖范围:
全球
运营商:
太空探索技术公司
运营商所在国:
美国
制造商(研发单位):
太空探索技术公司
制造商所在国:
美国
使用方式:
暂无
卫星简介
Starlink 计划是 SpaceX 推出的全球卫星互联网项目,通过发射低轨道卫星,为全球尤其是偏远地区提供高速、低延迟的互联网服务。自 2019 年起,Starlink 已部署数千颗卫星,旨在缩小全球数字鸿沟,推动互联网普及。该项目还为军事、航空等行业提供通信支持,带来广泛经济效益。
2D轨道图
3D轨道图
轨道高度分析图
轨道倾角分析图
轨道综合分析图
查看轨道综合分析图
交会数据列表
事件ID 空间交会对象 最接近时刻(TCA) 交会距离 交会风险概率(CRP) 交会风险指数(CRI) 操作
CDM_260907-162404-783706-816121
2026-09-07T
16:24:16+0000
1.541 km
极远距离
6.079353E-6 低风险 0.51
CDM_260907-153704-783706-816121
2026-09-07T
15:37:17+0000
1.572 km
极远距离
5.689438E-6 低风险 0.5
CDM_260905-150305-401106-816121
2026-09-05T
15:03:25+0000
1.723 km
极远距离
4.291629E-6 低风险 0.48
CDM_260905-155005-401106-816121
2026-09-05T
15:50:24+0000
2.585 km
极远距离
1.644745E-6 低风险 0.39